Regional Weather Roundup
Issued by NWS

Home | Current Version | Previous Version | Text Only | Print | Product List | Glossary On
Versions: 1 2 3 4 5 6 7 8 9 10 11 12 13 14 15 16 17 18 19 20 21 22 23 24 25 26 27 28 29 30 31 32 33 34 35 36 37 38 39 40 41 42 43 44 45 46 47 48 49 50
000
ASUS43 KDTX 291001
RWRMI
MICHIGAN HOURLY REGIONAL WEATHER ROUNDUP
NATIONAL WEATHER SERVICE DETROIT/PONTIAC MI
600 AM EDT MON AUG 29 2016

NOTE: "FAIR" INDICATES FEW OR NO CLOUDS BELOW 12,000 FEET WITH NO
SIGNIFICANT WEATHER AND/OR OBSTRUCTION TO VISIBILITY.

MIZ047>049-052>055-059>063-066>070-074>076-081>083-291100-
SOUTHEAST LOWER MICHIGAN

CITY           SKY/WX    TMP DP  RH WIND       PRES   REMARKS
ADRIAN         MOCLDY    68  68 100 NE5       30.25S
ALMA           FOG       65  65 100 NE3       30.27R VSB 1/4
ANN ARBOR      PTCLDY    65  65 100 CALM      30.24S FOG
CARO           FOG       62  61  98 CALM      30.27R VSB 1/2
DETROIT CITY   CLEAR     67  67 100 N5        30.25R
DETROIT        MOCLDY    68  67  96 N5        30.25R
FLINT          FOG       66  63  90 E8        30.28R VSB 1/2
GROSSE ILE     PTCLDY    68  67  96 NE6       30.23R
HILLSDALE      CLOUDY    67  66  95 CALM      30.25S FOG
HOWELL         FOG       61  60  97 CALM      30.26R VSB 1/4

CITY           SKY/WX    TMP DP  RH WIND       PRES   REMARKS
JACKSON        CLEAR     65  65 100 E3        30.26R
LAMBERTVILLE   MOCLDY    70  68  95 NE5       30.24R
LANSING        PTCLDY    63  60  90 CALM      30.26R FOG
LAPEER         FOG       65  65  97 CALM      30.28R VSB 1
MASON          FOG       61  60  97 CALM      30.26S VSB 3/4
MONROE         CLOUDY    68  68 100 CALM      30.23R
MT. CLEMENS    FOG       64  64 100 N6        30.23S VSB 3/4
PONTIAC        PTCLDY    65  63  93 NE5       30.26R FOG
PORT HURON     FOG       59  59 100 CALM      30.27R VSB 1/4
TRI CITIES     FOG       66  66 100 E6        30.28R VSB 1/4
MIDLAND        FAIR      66  66  99 CALM      30.26S
TROY           CLEAR     69  66  90 N5        30.27S
SAGINAW HB     FOG       64  64 100 CALM      30.26S VSB 1/2
$$
MIZ043>046-050>051-056>058-064>065-071>073-077>080-291100-
SOUTHWEST LOWER MICHIGAN

CITY           SKY/WX    TMP DP  RH WIND       PRES   REMARKS
BATTLE CREEK   PTCLDY    65  65 100 CALM      30.25R
BENTON HARBOR  CLEAR     65  63  93 NE3       30.22R
BIG RAPIDS     CLEAR     60  59  97 CALM      30.27S
COLDWATER      FOG       67  67 100 CALM      30.25R VSB 3/4
FREMONT        FAIR      65  62  91 E6        30.25S
HOLLAND        CLEAR     64  62  93 CALM      30.24S
GRAND RAPIDS   CLEAR     65  62  90 NE3       30.25R
IONIA          FAIR      62  61  97 NE3       30.25S FOG
KALAMAZOO      CLEAR     67  64  90 CALM      30.24R
LUDINGTON      CLOUDY    57  57 100 CALM      30.25R FOG
MARSHALL       CLEAR     64  64 100 CALM      30.24S
MOUNT PLEASANT FOG       65  64  98 CALM      30.27R VSB 3/4
MUSKEGON       CLEAR     64  62  93 E3        30.24S
SOUTH HAVEN    CLEAR     67  67  99 CALM      30.23R
$$
MIZ016>042-291100-
NORTHERN LOWER MICHIGAN

CITY           SKY/WX    TMP DP  RH WIND       PRES   REMARKS
ALPENA         CLEAR     52  50  93 CALM      30.29S
BEAVER ISLAND  CLEAR     58  58 100 CALM      30.27S FOG
BELLAIRE       CLEAR     53  52  96 CALM      30.28S
CADILLAC       CLEAR     52  51  96 CALM      30.28S
CHARLEVOIX     FOG       62  62 100 SE5       30.30S VSB 1/2
FRANKFORT      PTCLDY    57  55  94 CALM      30.26S
GAYLORD        FOG       59  57  93 S7        30.30R VSB 1/4
GRAYLING       FOG       52  51  97 CALM      30.31R VSB 1/4
HARBOR SPRINGS FOG       60  60  99 CALM      30.28S VSB 1/4
HOUGHTON LAKE  FOG       52  51  97 E5        30.30S VSB 1/4
MANISTEE       CLEAR     58  57  97 E6        30.26R
OSCODA         PTCLDY    57  57 100 CALM      30.28S
PELLSTON       FOG       55  54  96 CALM      30.29R VSB 1/4
ROGERS CITY    CLEAR     52  51  94 CALM      30.30R
TRAVERSE CITY  CLEAR     58  56  93 CALM      30.27R
$$
MIZ007>008-015-291100-
EASTERN UPPER MICHIGAN

CITY           SKY/WX    TMP DP  RH WIND       PRES   REMARKS
KINROSS        CLOUDY    55  54  96 CALM      30.29R FOG
MACKINAC ISLAN CLEAR     56  56 100 SE5       30.28R
NEWBERRY       FOG       50  49  97 CALM      30.27F VSB 3/4
S. S. MARIE    CLEAR     54  53  97 NE5       30.28S FOG
$$
MIZ004>006-011>014-085-291100-
CENTRAL UPPER MICHIGAN

CITY           SKY/WX    TMP DP  RH WIND       PRES   REMARKS
MANISTIQUE     PTCLDY    56  54  92 CALM      30.26S
ESCANABA       CLOUDY    57  57 100 CALM      30.26R FOG
MENOMINEE      CLOUDY   N/A N/A N/A CALM      30.26R FOG
SAWYER-GWINN   FOG       56  55  97 S6        30.26S VSB 1/4
$$
MIZ001>003-009>011-084-291100-
WESTERN UPPER MICHIGAN

CITY           SKY/WX    TMP DP  RH WIND       PRES   REMARKS
IRON MOUNTAIN  FOG       62  60  93 SE6       30.25R VSB 1/2
HOUGHTON       CLOUDY    61  58  90 E3        30.20F
IRONWOOD       CLOUDY    66  63  90 S13       30.17F
$$

ABBREVIATIONS USED IN REMARKS
   TC - TEMPERATURE IN CELSIUS
  WCI - WIND CHILL INDEX
   HX - HEAT INDEX
  VSB - VISIBILITY





USA.gov is the U.S. government's official web portal to all federal, state and local government web resources and services.